Regional Weather Roundup
Issued by NWS

Home | Current Version | Previous Version | Text Only | Print | Product List | Glossary On
Versions: 1 2 3 4 5 6 7 8 9 10 11 12 13 14 15 16 17 18 19 20 21 22 23 24 25 26 27 28 29 30 31 32 33 34 35 36 37 38 39 40 41 42 43 44 45 46 47 48 49 50
000
ASUS43 KLSX 290707
RWRMO

WEATHER SUMMARY FOR MISSOURI
NATIONAL WEATHER SERVICE SPRINGFIELD MO
200 AM CDT FRI APR 29 2016

NOTE: "FAIR" INDICATES FEW OR NO CLOUDS BELOW 12,000 FEET WITH NO
       SIGNIFICANT WEATHER AND/OR OBSTRUCTIONS TO VISIBILITY.
       CURRENT SKY AND/OR WEATHER CONDITIONS ARE NOT AVAILABLE FOR
       CHILLICOTHE AND FARMINGTON.

MOZ001>031-035>038-043-044-053-054-290800-
...NORTHERN AND WESTERN MISSOURI...

CITY           SKY/WX    TMP DP  RH WIND       PRES   REMARKS
KANSAS CTY INT CLOUDY    50  44  80 NW6       30.09R
KANSAS C DTWN  CLOUDY    53  46  77 N5        30.09R
LEE`S SUMMIT   CLOUDY    51  46  83 N5        30.09R
ST JOSEPH      CLOUDY    50  44  80 N7        30.11R
CHILLICOTHE      N/A     47  45  93 CALM      30.10R
KIRKSVILLE     CLEAR     48  43  82 NW6       30.07R

$$
MOZ066>068-077>081-088>096-101>105-290800-
...SOUTHWEST MISSOURI...

CITY           SKY/WX    TMP DP  RH WIND       PRES   REMARKS
SPRINGFIELD    CLOUDY    57  48  72 NE8       30.00S
JOPLIN         CLOUDY    57  51  80 NE9       30.01R

$$
MOZ032>034-039>042-045>050-055>058-069>072-290800-
...CENTRAL MISSOURI...

CITY           SKY/WX    TMP DP  RH WIND       PRES   REMARKS
COLUMBIA       CLOUDY    51  48  89 NW5       30.05R
JEFFERSON CITY CLOUDY    51  48  89 CALM      30.06R
ROLLA          PTCLDY    50  47  89 CALM      30.04R
SEDALIA        CLOUDY    52  48  86 N7        30.07S
WHITEMAN AFB   CLOUDY    50  50 100 N6        30.07R
WARRENSBURG    MOCLDY    48  46  93 CALM      30.08R
OSAGE BEACH    CLOUDY    52  41  66 NE3       30.05S

$$
MOZ051-052-059>065-290800-
...EAST CENTRAL MISSOURI...

CITY           SKY/WX    TMP DP  RH WIND       PRES   REMARKS
ST LOUIS INTL  MOCLDY    57  49  74 CALM      30.04R
SPIRIT OF STL  MOCLDY    52  51  97 CALM      30.03R
ST CHARLES     PTCLDY    54  51  90 W3        30.03R

$$
MOZ072>076-082>087-097>100-106>115-290800-
...SOUTH CENTRAL AND SOUTHEAST MISSOURI...

CITY           SKY/WX    TMP DP  RH WIND       PRES   REMARKS
CAPE GIRARDEAU CLEAR     59  52  77 N5        30.00R
FARMINGTON     CLOUDY    55  49  80 CALM      30.04S
POPLAR BLUFF   PTCLDY    57  52  83 N3        29.98S
WEST PLAINS    CLOUDY    55  44  66 N3        30.01S

$$



USA.gov is the U.S. government's official web portal to all federal, state and local government web resources and services.